START_TIME,STEP,MOV.,A46,t_acc.,A13,t_acc.,M47,t_acc.,A17,t_acc.,A28,t_acc.,M38,t_acc.
1980-11-15 12:00:14.090 ,0,0,,0,0.,4.8,0.,4.8,,0,1.,4.8,0.,4.8
1980-11-15 12:00:18.890 ,0,0,,0,0.,4.8,0.,4.8,,0,0.,4.8,0.,4.8
1980-11-15 12:00:23.690 ,0,0,,0,0.,4.8,0.,4.8,,0,0.,4.8,0.,4.8
1980-11-15 12:00:28.490 ,0,0,,0,0.,4.8,0.,4.8,,0,0.,4.8,0.,4.8
1980-11-15 12:00:33.290 ,0,0,,0,0.,4.8,0.,4.8,,0,0.,4.8,0.,4.8
1980-11-15 12:00:38.090 ,0,0,,0,0.,4.8,0.,4.8,,0,0.,4.8,0.,4.8
1980-11-15 12:00:42.890 ,0,0,,0,0.,4.8,0.,4.8,,0,0.,4.8,0.,4.8
1980-11-15 12:00:47.690 ,0,0,,0,0.,4.8,0.,4.8,,0,0.,4.8,0.,4.8
1980-11-15 12:00:52.490 ,0,0,,0,0.,4.8,0.,4.8,,0,0.,4.8,0.,4.8
1980-11-15 12:00:57.290 ,0,0,,0,0.,4.8,0.,4.8,,0,0.,4.8,0.,4.8
1980-11-15 12:01:02.090 ,0,0,,0,0.,4.8,0.,4.8,,0,0.,4.8,0.,4.8
1980-11-15 12:01:06.890 ,0,0,,0,0.,4.8,0.,4.8,,0,0.,4.8,0.,4.8
1980-11-15 12:01:11.690 ,0,0,,0,0.,4.8,0.,4.8,,0,0.,4.8,0.,4.8
1980-11-15 12:01:16.490 ,0,0,,0,0.,4.8,0.,4.8,,0,0.,4.8,1.,4.8
1980-11-15 12:01:21.290 ,0,0,,0,0.,4.8,0.,4.8,,0,0.,4.8,0.,4.8
1980-11-15 12:03:02.090 ,0,0,,0,0.,4.8,0.,4.8,,0,0.,4.8,0.,4.8
1980-11-15 12:03:06.890 ,0,0,,0,0.,4.8,0.,4.8,,0,0.,4.8,0.,4.8
1980-11-15 12:03:11.690 ,0,0,,0,0.,4.8,0.,4.8,,0,0.,4.8,0.,4.8
1980-11-15 12:03:16.490 ,0,0,,0,0.,4.8,0.,4.8,,0,0.,4.8,0.,4.8
1980-11-15 12:03:21.290 ,0,0,,0,0.,4.8,0.,4.8,,0,0.,4.8,0.,4.8
1980-11-15 12:03:26.090 ,0,0,,0,0.,4.8,0.,4.8,,0,0.,4.8,0.,4.8
1980-11-15 12:03:30.890 ,0,0,,0,0.,4.8,0.,4.8,,0,0.,4.8,0.,4.8
1980-11-15 12:03:35.690 ,0,0,,0,0.,4.8,0.,4.8,,0,0.,4.8,0.,4.8
1980-11-15 12:03:40.490 ,0,0,,0,0.,4.8,0.,4.8,,0,0.,4.8,0.,4.8
1980-11-15 12:03:45.290 ,0,0,,0,0.,4.8,0.,4.8,,0,0.,4.8,0.,4.8
1980-11-15 12:03:50.090 ,4,0,,0,0.,4.8,0.,4.8,,0,0.,4.8,0.,4.8
1980-11-15 12:03:54.890 ,4,0,,0,0.,4.8,0.,4.8,,0,0.,4.8,0.,4.8
1980-11-15 12:03:59.690 ,4,0,,0,0.,4.8,0.,4.8,,0,0.,4.8,0.,4.8
1980-11-15 12:04:04.490 ,4,0,,0,0.,4.8,0.,4.8,,0,0.,4.8,0.,4.8
1980-11-15 12:04:09.290 ,4,0,,0,0.,4.8,0.,4.8,,0,0.,4.8,0.,4.8
1980-11-15 12:04:14.090 ,4,0,,0,0.,4.8,0.,4.8,,0,0.,4.8,0.,4.8
1980-11-15 12:04:18.890 ,4,0,,0,0.,4.8,0.,4.8,,0,0.,4.8,0.,4.8
1980-11-15 12:04:23.690 ,4,0,,0,0.,4.8,0.,4.8,,0,0.,4.8,0.,4.8
1980-11-15 12:04:28.490 ,4,0,,0,0.,4.8,0.,4.8,,0,0.,4.8,0.,4.8
1980-11-15 12:04:33.290 ,4,0,,0,0.,4.8,0.,4.8,,0,0.,4.8,0.,4.8
1980-11-15 12:03:02.090 ,0,0,,0,0.,4.8,0.,4.8,,0,0.,4.8,0.,4.8
1980-11-15 12:03:06.890 ,0,0,,0,0.,4.8,0.,4.8,,0,0.,4.8,0.,4.8
1980-11-15 12:03:11.690 ,0,0,,0,0.,4.8,0.,4.8,,0,0.,4.8,0.,4.8
1980-11-15 12:03:16.490 ,0,0,,0,0.,4.8,0.,4.8,,0,0.,4.8,0.,4.8
1980-11-15 12:03:21.290 ,0,0,,0,0.,4.8,0.,4.8,,0,0.,4.8,0.,4.8
1980-11-15 12:03:26.090 ,0,0,,0,0.,4.8,0.,4.8,,0,0.,4.8,0.,4.8
1980-11-15 12:03:30.890 ,0,0,,0,0.,4.8,0.,4.8,,0,0.,4.8,0.,4.8
1980-11-15 12:03:35.690 ,0,0,,0,0.,4.8,0.,4.8,,0,0.,4.8,0.,4.8
1980-11-15 12:03:40.490 ,0,0,,0,0.,4.8,0.,4.8,,0,0.,4.8,0.,4.8
1980-11-15 12:03:45.290 ,0,0,,0,0.,4.8,0.,4.8,,0,0.,4.8,0.,4.8
1980-11-15 12:03:50.090 ,4,0,,0,0.,4.8,0.,4.8,,0,0.,4.8,0.,4.8
1980-11-15 12:03:54.890 ,4,0,,0,0.,4.8,0.,4.8,,0,0.,4.8,0.,4.8
1980-11-15 12:03:59.690 ,4,0,,0,0.,4.8,0.,4.8,,0,0.,4.8,0.,4.8
1980-11-15 12:04:04.490 ,4,0,,0,0.,4.8,0.,4.8,,0,0.,4.8,0.,4.8
1980-11-15 12:04:09.290 ,4,0,,0,0.,4.8,0.,4.8,,0,0.,4.8,0.,4.8
1980-11-15 12:04:14.090 ,4,0,,0,0.,4.8,0.,4.8,,0,0.,4.8,0.,4.8
1980-11-15 12:04:18.890 ,4,0,,0,0.,4.8,0.,4.8,,0,0.,4.8,0.,4.8
1980-11-15 12:04:23.690 ,4,0,,0,0.,4.8,0.,4.8,,0,0.,4.8,0.,4.8
1980-11-15 12:04:28.490 ,4,0,,0,0.,4.8,0.,4.8,,0,0.,4.8,0.,4.8
1980-11-15 12:04:33.290 ,4,0,,0,0.,4.8,0.,4.8,,0,0.,4.8,0.,4.8
1980-11-15 12:03:26.090 ,0,0,,0,0.,4.8,0.,4.8,,0,0.,4.8,0.,4.8
1980-11-15 12:03:30.890 ,0,0,,0,0.,4.8,0.,4.8,,0,0.,4.8,0.,4.8
1980-11-15 12:03:35.690 ,0,0,,0,0.,4.8,0.,4.8,,0,0.,4.8,0.,4.8
1980-11-15 12:03:40.490 ,0,0,,0,0.,4.8,0.,4.8,,0,0.,4.8,0.,4.8
1980-11-15 12:03:45.290 ,0,0,,0,0.,4.8,0.,4.8,,0,0.,4.8,0.,4.8
1980-11-15 12:03:50.090 ,4,0,,0,0.,4.8,0.,4.8,,0,0.,4.8,0.,4.8
1980-11-15 12:03:54.890 ,4,0,,0,0.,4.8,0.,4.8,,0,0.,4.8,0.,4.8
1980-11-15 12:03:59.690 ,4,0,,0,0.,4.8,0.,4.8,,0,0.,4.8,0.,4.8
1980-11-15 12:04:04.490 ,4,0,,0,0.,4.8,0.,4.8,,0,0.,4.8,0.,4.8
1980-11-15 12:04:09.290 ,4,0,,0,0.,4.8,0.,4.8,,0,0.,4.8,0.,4.8
1980-11-15 12:04:14.090 ,4,0,,0,0.,4.8,0.,4.8,,0,0.,4.8,0.,4.8
1980-11-15 12:04:18.890 ,4,0,,0,0.,4.8,0.,4.8,,0,0.,4.8,0.,4.8
1980-11-15 12:04:23.690 ,4,0,,0,0.,4.8,0.,4.8,,0,0.,4.8,0.,4.8
1980-11-15 12:04:28.490 ,4,0,,0,0.,4.8,0.,4.8,,0,0.,4.8,0.,4.8
1980-11-15 12:04:33.290 ,4,0,,0,0.,4.8,0.,4.8,,0,0.,4.8,0.,4.8
1980-11-15 12:13:26.090 ,0,0,,0,0.,4.8,0.,4.8,,0,0.,4.8,0.,4.8
1980-11-15 12:13:30.890 ,0,0,,0,0.,4.8,0.,4.8,,0,0.,4.8,0.,4.8
1980-11-15 12:13:35.690 ,0,0,,0,0.,4.8,0.,4.8,,0,0.,4.8,0.,4.8
1980-11-15 12:13:40.490 ,0,0,,0,0.,4.8,0.,4.8,,0,0.,4.8,0.,4.8
1980-11-15 12:13:45.290 ,0,0,,0,0.,4.8,0.,4.8,,0,0.,4.8,0.,4.8
1980-11-15 12:13:50.090 ,0,0,,0,0.,4.8,0.,4.8,,0,0.,4.8,0.,4.8
1980-11-15 12:13:54.890 ,0,0,,0,0.,4.8,0.,4.8,,0,0.,4.8,0.,4.8
1980-11-15 12:13:59.690 ,0,0,,0,0.,4.8,0.,4.8,,0,0.,4.8,0.,4.8
1980-11-15 12:14:04.490 ,0,0,,0,0.,4.8,0.,4.8,,0,0.,4.8,0.,4.8
1980-11-15 12:14:09.290 ,0,0,,0,0.,4.8,0.,4.8,,0,0.,4.8,0.,4.8
1980-11-15 12:14:14.090 ,1,0,,0,0.,4.8,0.,4.8,,0,0.,4.8,0.,4.8
1980-11-15 12:14:18.890 ,1,0,,0,0.,4.8,0.,4.8,,0,0.,4.8,0.,4.8
1980-11-15 12:14:23.690 ,1,0,,0,0.,4.8,0.,4.8,,0,0.,4.8,0.,4.8
1980-11-15 12:14:28.490 ,1,0,,0,0.,4.8,0.,4.8,,0,0.,4.8,0.,4.8
1980-11-15 12:14:33.290 ,1,0,,0,0.,4.8,0.,4.8,,0,0.,4.8,0.,4.8
1980-11-15 12:14:38.090 ,1,0,,0,0.,4.8,0.,4.8,,0,0.,4.8,0.,4.8
1980-11-15 12:14:42.890 ,1,0,,0,0.,4.8,0.,4.8,,0,0.,4.8,0.,4.8
1980-11-15 12:14:47.690 ,1,0,,0,0.,4.8,0.,4.8,,0,0.,4.8,0.,4.8
1980-11-15 12:14:52.490 ,1,0,,0,0.,4.8,0.,4.8,,0,0.,4.8,0.,4.8
1980-11-15 12:14:57.290 ,1,0,,0,0.,4.8,0.,4.8,,0,0.,4.8,0.,4.8
1980-11-15 12:15:02.090 ,2,0,,0,0.,4.8,0.,4.8,,0,0.,4.8,0.,4.8
1980-11-15 12:15:06.890 ,2,0,,0,0.,4.8,0.,4.8,,0,0.,4.8,0.,4.8
1980-11-15 12:15:11.690 ,2,0,,0,0.,4.8,0.,4.8,,0,0.,4.8,0.,4.8
1980-11-15 12:15:16.490 ,2,0,,0,,0,,0,,0,,0,,0
1980-11-15 12:15:21.290 ,2,0,,0,0.,4.8,0.,4.8,,0,0.,4.8,0.,4.8
1980-11-15 12:15:26.090 ,2,0,,0,0.,4.8,0.,4.8,,0,0.,4.8,0.,4.8
1980-11-15 12:15:30.890 ,2,0,,0,0.,4.8,0.,4.8,,0,0.,4.8,0.,4.8
1980-11-15 12:15:35.690 ,2,0,,0,0.,4.8,0.,4.8,,0,0.,4.8,0.,4.8
1980-11-15 12:15:40.490 ,2,0,,0,0.,4.8,0.,4.8,,0,0.,4.8,0.,4.8
1980-11-15 12:15:45.290 ,2,0,,0,0.,4.8,0.,4.8,,0,0.,4.8,0.,4.8
1980-11-15 12:15:50.090 ,3,0,,0,0.,4.8,0.,4.8,,0,0.,4.8,0.,4.8
1980-11-15 12:15:54.890 ,3,0,,0,0.,4.8,0.,4.8,,0,0.,4.8,0.,4.8
1980-11-15 12:15:59.690 ,3,0,,0,0.,4.8,0.,4.8,,0,0.,4.8,0.,4.8
1980-11-15 12:16:04.490 ,3,0,,0,0.,4.8,0.,4.8,,0,0.,4.8,0.,4.8
1980-11-15 12:16:09.290 ,3,0,,0,0.,4.8,0.,4.8,,0,0.,4.8,0.,4.8
1980-11-15 12:16:14.090 ,3,0,,0,0.,4.8,0.,4.8,,0,0.,4.8,0.,4.8
1980-11-15 12:16:18.890 ,3,0,,0,0.,4.8,0.,4.8,,0,0.,4.8,0.,4.8
1980-11-15 12:16:23.690 ,3,0,,0,0.,4.8,0.,4.8,,0,0.,4.8,0.,4.8
1980-11-15 12:16:28.490 ,3,0,,0,0.,4.8,0.,4.8,,0,0.,4.8,0.,4.8
1980-11-15 12:16:33.290 ,3,0,,0,0.,4.8,0.,4.8,,0,0.,4.8,0.,4.8
1980-11-15 12:16:38.090 ,4,0,,0,0.,4.8,0.,4.8,,0,0.,4.8,0.,4.8
1980-11-15 12:16:42.890 ,4,0,,0,0.,4.8,0.,4.8,,0,0.,4.8,0.,4.8
1980-11-15 12:16:47.690 ,4,0,,0,0.,4.8,0.,4.8,,0,0.,4.8,0.,4.8
1980-11-15 12:16:52.490 ,4,0,,0,0.,4.8,0.,4.8,,0,0.,4.8,0.,4.8
1980-11-15 12:16:57.290 ,4,0,,0,0.,4.8,0.,4.8,,0,0.,4.8,0.,4.8
1980-11-15 12:17:02.090 ,4,0,,0,0.,4.8,0.,4.8,,0,0.,4.8,0.,4.8
1980-11-15 12:17:06.890 ,4,0,,0,0.,4.8,0.,4.8,,0,0.,4.8,0.,4.8
1980-11-15 12:17:11.690 ,4,0,,0,0.,4.8,0.,4.8,,0,0.,4.8,0.,4.8
1980-11-15 12:17:16.490 ,4,0,,0,0.,4.8,0.,4.8,,0,0.,4.8,0.,4.8
1980-11-15 12:17:21.290 ,4,0,,0,0.,4.8,0.,4.8,,0,0.,4.8,0.,4.8
1980-11-15 12:17:26.090 ,5,0,,0,0.,4.8,0.,4.8,,0,0.,4.8,0.,4.8
1980-11-15 12:17:30.890 ,5,0,,0,0.,4.8,0.,4.8,,0,0.,4.8,0.,4.8
1980-11-15 12:17:35.690 ,5,0,,0,0.,4.8,0.,4.8,,0,0.,4.8,0.,4.8
1980-11-15 12:17:40.490 ,5,0,,0,0.,4.8,0.,4.8,,0,0.,4.8,0.,4.8
1980-11-15 12:17:45.290 ,5,0,,0,0.,4.8,0.,4.8,,0,0.,4.8,0.,4.8
1980-11-15 12:17:50.090 ,5,0,,0,0.,4.8,0.,4.8,,0,0.,4.8,0.,4.8
1980-11-15 12:17:54.890 ,5,0,,0,0.,4.8,0.,4.8,,0,0.,4.8,0.,4.8
1980-11-15 12:17:59.690 ,5,0,,0,0.,4.8,0.,4.8,,0,0.,4.8,0.,4.8
1980-11-15 12:18:04.490 ,5,0,,0,0.,4.8,0.,4.8,,0,0.,4.8,0.,4.8
1980-11-15 12:18:09.290 ,5,0,,0,0.,4.8,0.,4.8,,0,0.,4.8,0.,4.8
1980-11-15 12:18:14.090 ,6,0,,0,0.,4.8,0.,4.8,,0,0.,4.8,0.,4.8
1980-11-15 12:18:18.890 ,6,0,,0,0.,4.8,0.,4.8,,0,0.,4.8,0.,4.8
1980-11-15 12:18:23.690 ,6,0,,0,0.,4.8,0.,4.8,,0,0.,4.8,0.,4.8
1980-11-15 12:18:28.490 ,6,0,,0,0.,4.8,0.,4.8,,0,0.,4.8,0.,4.8
1980-11-15 12:18:33.290 ,6,0,,0,0.,4.8,0.,4.8,,0,0.,4.8,0.,4.8
1980-11-15 12:18:38.090 ,6,0,,0,0.,4.8,0.,4.8,,0,0.,4.8,0.,4.8
1980-11-15 12:18:42.890 ,6,0,,0,0.,4.8,0.,4.8,,0,0.,4.8,0.,4.8
1980-11-15 12:18:47.690 ,6,0,,0,0.,4.8,0.,4.8,,0,0.,4.8,0.,4.8
1980-11-15 12:18:52.490 ,6,0,,0,0.,4.8,0.,4.8,,0,0.,4.8,0.,4.8
1980-11-15 12:18:57.290 ,6,0,,0,0.,4.8,0.,4.8,,0,0.,4.8,0.,4.8
1980-11-15 12:19:02.090 ,7,0,,0,0.,4.8,0.,4.8,,0,0.,4.8,0.,4.8
1980-11-15 12:19:06.890 ,7,0,,0,0.,4.8,0.,4.8,,0,0.,4.8,0.,4.8
1980-11-15 12:19:11.690 ,7,0,,0,0.,4.8,0.,4.8,,0,0.,4.8,0.,4.8
1980-11-15 12:19:16.490 ,7,0,,0,0.,4.8,0.,4.8,,0,0.,4.8,0.,4.8
1980-11-15 12:19:21.290 ,7,0,,0,0.,4.8,0.,4.8,,0,0.,4.8,0.,4.8
1980-11-15 12:19:26.090 ,7,0,,0,0.,4.8,0.,4.8,,0,0.,4.8,0.,4.8
1980-11-15 12:19:30.890 ,7,0,,0,0.,4.8,0.,4.8,,0,0.,4.8,0.,4.8
1980-11-15 12:19:35.690 ,7,0,,0,0.,4.8,0.,4.8,,0,0.,4.8,0.,4.8
1980-11-15 12:19:40.490 ,7,0,,0,0.,4.8,0.,4.8,,0,0.,4.8,0.,4.8
1980-11-15 12:19:45.290 ,7,0,,0,0.,4.8,0.,4.8,,0,0.,4.8,0.,4.8
1980-11-15 12:19:50.090 ,7,0,,0,0.,4.8,0.,4.8,,0,0.,4.8,0.,4.8
1980-11-15 12:19:54.890 ,7,0,,0,0.,4.8,0.,4.8,,0,0.,4.8,0.,4.8
1980-11-15 12:19:59.690 ,7,0,,0,0.,4.8,0.,4.8,,0,0.,4.8,0.,4.8
1980-11-15 12:20:04.490 ,7,0,,0,0.,4.8,0.,4.8,,0,0.,4.8,0.,4.8
1980-11-15 12:20:09.290 ,7,0,,0,0.,4.8,0.,4.8,,0,0.,4.8,0.,4.8
1980-11-15 12:20:14.090 ,7,0,,0,0.,4.8,0.,4.8,,0,0.,4.8,0.,4.8
1980-11-15 12:20:18.890 ,7,0,,0,0.,4.8,0.,4.8,,0,0.,4.8,0.,4.8
1980-11-15 12:20:23.690 ,7,0,,0,0.,4.8,1.,4.8,,0,0.,4.8,0.,4.8
1980-11-15 12:20:28.490 ,7,0,,0,0.,4.8,0.,4.8,,0,0.,4.8,0.,4.8
1980-11-15 12:20:33.290 ,7,0,,0,0.,4.8,0.,4.8,,0,0.,4.8,0.,4.8
1980-11-15 12:20:38.090 ,6,0,,0,0.,4.8,0.,4.8,,0,0.,4.8,0.,4.8
1980-11-15 12:20:42.890 ,6,0,,0,0.,4.8,0.,4.8,,0,0.,4.8,0.,4.8
1980-11-15 12:20:47.690 ,6,0,,0,0.,4.8,0.,4.8,,0,0.,4.8,0.,4.8
1980-11-15 12:20:52.490 ,6,0,,0,0.,4.8,0.,4.8,,0,0.,4.8,0.,4.8
1980-11-15 12:20:57.290 ,6,0,,0,0.,4.8,0.,4.8,,0,0.,4.8,0.,4.8
1980-11-15 12:21:02.090 ,6,0,,0,0.,4.8,0.,4.8,,0,0.,4.8,0.,4.8
1980-11-15 12:21:06.890 ,6,0,,0,0.,4.8,0.,4.8,,0,0.,4.8,0.,4.8
1980-11-15 12:21:11.690 ,6,0,,0,0.,4.8,0.,4.8,,0,0.,4.8,0.,4.8
1980-11-15 12:21:16.490 ,6,0,,0,0.,4.8,0.,4.8,,0,0.,4.8,0.,4.8
1980-11-15 12:21:21.290 ,6,0,,0,0.,4.8,0.,4.8,,0,0.,4.8,0.,4.8
1980-11-15 12:21:26.090 ,5,0,,0,0.,4.8,0.,4.8,,0,0.,4.8,0.,4.8
1980-11-15 12:21:30.890 ,5,0,,0,0.,4.8,0.,4.8,,0,0.,4.8,0.,4.8
1980-11-15 12:21:35.690 ,5,0,,0,0.,4.8,0.,4.8,,0,0.,4.8,0.,4.8
1980-11-15 12:21:40.490 ,5,0,,0,0.,4.8,0.,4.8,,0,0.,4.8,0.,4.8
1980-11-15 12:21:45.290 ,5,0,,0,0.,4.8,0.,4.8,,0,0.,4.8,0.,4.8
1980-11-15 12:21:50.090 ,5,0,,0,0.,4.8,0.,4.8,,0,0.,4.8,0.,4.8
1980-11-15 12:21:54.890 ,5,0,,0,0.,4.8,0.,4.8,,0,0.,4.8,0.,4.8
1980-11-15 12:21:59.690 ,5,0,,0,0.,4.8,0.,4.8,,0,0.,4.8,0.,4.8
1980-11-15 12:22:04.490 ,5,0,,0,0.,4.8,0.,4.8,,0,0.,4.8,0.,4.8
1980-11-15 12:22:09.290 ,5,0,,0,0.,4.8,0.,4.8,,0,0.,4.8,0.,4.8
1980-11-15 12:22:14.090 ,4,0,,0,0.,4.8,0.,4.8,,0,0.,4.8,0.,4.8
1980-11-15 12:22:18.890 ,4,0,,0,0.,4.8,0.,4.8,,0,0.,4.8,0.,4.8
1980-11-15 12:22:23.690 ,4,0,,0,0.,4.8,0.,4.8,,0,0.,4.8,0.,4.8
1980-11-15 12:22:28.490 ,4,0,,0,0.,4.8,0.,4.8,,0,0.,4.8,0.,4.8
1980-11-15 12:22:33.290 ,4,0,,0,0.,4.8,0.,4.8,,0,0.,4.8,0.,4.8
1980-11-15 12:22:38.090 ,4,0,,0,0.,4.8,0.,4.8,,0,0.,4.8,0.,4.8
1980-11-15 12:22:42.890 ,4,0,,0,0.,4.8,0.,4.8,,0,0.,4.8,0.,4.8
1980-11-15 12:22:47.690 ,4,0,,0,0.,4.8,0.,4.8,,0,0.,4.8,0.,4.8
1980-11-15 12:22:52.490 ,4,0,,0,0.,4.8,0.,4.8,,0,0.,4.8,0.,4.8
1980-11-15 12:22:57.290 ,4,0,,0,0.,4.8,0.,4.8,,0,0.,4.8,0.,4.8
1980-11-15 12:23:02.090 ,3,0,,0,0.,4.8,0.,4.8,,0,0.,4.8,0.,4.8
1980-11-15 12:23:06.890 ,3,0,,0,0.,4.8,0.,4.8,,0,0.,4.8,0.,4.8
1980-11-15 12:23:11.690 ,3,0,,0,0.,4.8,0.,4.8,,0,0.,4.8,0.,4.8
1980-11-15 12:23:16.490 ,3,0,,0,0.,4.8,0.,4.8,,0,0.,4.8,0.,4.8
1980-11-15 12:23:21.290 ,3,0,,0,0.,4.8,0.,4.8,,0,0.,4.8,0.,4.8
1980-11-15 12:23:26.090 ,3,0,,0,0.,4.8,0.,4.8,,0,0.,4.8,0.,4.8
1980-11-15 12:23:30.890 ,3,0,,0,0.,4.8,0.,4.8,,0,0.,4.8,0.,4.8
1980-11-15 12:23:35.690 ,3,0,,0,0.,4.8,0.,4.8,,0,0.,4.8,0.,4.8
1980-11-15 12:23:40.490 ,3,0,,0,0.,4.8,0.,4.8,,0,0.,4.8,0.,4.8
1980-11-15 12:23:45.290 ,3,0,,0,0.,4.8,0.,4.8,,0,0.,4.8,0.,4.8
1980-11-15 12:23:50.090 ,2,0,,0,0.,4.8,0.,4.8,,0,0.,4.8,0.,4.8
1980-11-15 12:23:54.890 ,2,0,,0,0.,4.8,0.,4.8,,0,0.,4.8,0.,4.8
1980-11-15 12:23:59.690 ,2,0,,0,0.,4.8,0.,4.8,,0,0.,4.8,0.,4.8
1980-11-15 12:24:04.490 ,2,0,,0,0.,4.8,0.,4.8,,0,0.,4.8,0.,4.8
1980-11-15 12:24:09.290 ,2,0,,0,0.,4.8,0.,4.8,,0,0.,4.8,0.,4.8
1980-11-15 12:24:14.090 ,2,0,,0,0.,4.8,0.,4.8,,0,0.,4.8,0.,4.8
1980-11-15 12:24:18.890 ,2,0,,0,0.,4.8,0.,4.8,,0,0.,4.8,0.,4.8
1980-11-15 12:24:23.690 ,2,0,,0,0.,4.8,0.,4.8,,0,0.,4.8,0.,4.8
1980-11-15 12:24:28.490 ,2,0,,0,0.,4.8,0.,4.8,,0,0.,4.8,0.,4.8
1980-11-15 12:24:33.290 ,2,0,,0,0.,4.8,0.,4.8,,0,0.,4.8,0.,4.8
1980-11-15 12:24:38.090 ,1,0,,0,1.,4.8,0.,4.8,,0,0.,4.8,0.,4.8
1980-11-15 12:24:42.890 ,1,0,,0,0.,4.8,0.,4.8,,0,0.,4.8,0.,4.8
1980-11-15 12:24:47.690 ,1,0,,0,0.,4.8,0.,4.8,,0,0.,4.8,0.,4.8
1980-11-15 12:24:52.490 ,1,0,,0,0.,4.8,0.,4.8,,0,0.,4.8,0.,4.8
1980-11-15 12:24:57.290 ,1,0,,0,0.,4.8,0.,4.8,,0,0.,4.8,0.,4.8
1980-11-15 12:25:02.090 ,1,0,,0,0.,4.8,0.,4.8,,0,0.,4.8,0.,4.8
1980-11-15 12:25:06.890 ,1,0,,0,0.,4.8,0.,4.8,,0,0.,4.8,0.,4.8
1980-11-15 12:25:11.690 ,1,0,,0,0.,4.8,0.,4.8,,0,0.,4.8,0.,4.8
1980-11-15 12:25:16.490 ,1,0,,0,0.,4.8,0.,4.8,,0,0.,4.8,0.,4.8
1980-11-15 12:25:21.290 ,1,0,,0,0.,4.8,1.,4.8,,0,0.,4.8,0.,4.8
1980-11-15 12:25:26.090 ,0,0,,0,0.,4.8,0.,4.8,,0,0.,4.8,0.,4.8
1980-11-15 12:25:30.890 ,0,0,,0,0.,4.8,0.,4.8,,0,0.,4.8,0.,4.8
1980-11-15 12:25:35.690 ,0,0,,0,0.,4.8,0.,4.8,,0,0.,4.8,0.,4.8
1980-11-15 12:25:40.490 ,0,0,,0,0.,4.8,0.,4.8,,0,0.,4.8,0.,4.8
1980-11-15 12:25:45.290 ,0,0,,0,0.,4.8,0.,4.8,,0,0.,4.8,0.,4.8
1980-11-15 12:25:50.090 ,0,0,,0,0.,4.8,0.,4.8,,0,0.,4.8,0.,4.8
1980-11-15 12:25:54.890 ,0,0,,0,0.,4.8,0.,4.8,,0,0.,4.8,0.,4.8
1980-11-15 12:25:59.690 ,0,0,,0,0.,4.8,0.,4.8,,0,0.,4.8,0.,4.8
1980-11-15 12:26:04.490 ,0,0,,0,0.,4.8,0.,4.8,,0,0.,4.8,0.,4.8
1980-11-15 12:26:09.290 ,0,0,,0,0.,4.8,0.,4.8,,0,0.,4.8,0.,4.8
1980-11-15 12:26:14.090 ,0,0,,0,0.,4.8,0.,4.8,,0,0.,4.8,0.,4.8
1980-11-15 12:26:18.890 ,0,0,,0,0.,4.8,0.,4.8,,0,0.,4.8,0.,4.8
1980-11-15 12:26:23.690 ,0,0,,0,0.,4.8,0.,4.8,,0,1.,4.8,0.,4.8
1980-11-15 12:26:28.490 ,0,0,,0,0.,4.8,0.,4.8,,0,0.,4.8,0.,4.8
1980-11-15 12:26:33.290 ,0,0,,0,0.,4.8,0.,4.8,,0,0.,4.8,0.,4.8
1980-11-15 12:26:38.090 ,0,0,,0,0.,4.8,0.,4.8,,0,0.,4.8,0.,4.8
1980-11-15 12:26:42.890 ,0,0,,0,0.,4.8,0.,4.8,,0,0.,4.8,0.,4.8
1980-11-15 12:26:47.690 ,0,0,,0,0.,4.8,0.,4.8,,0,0.,4.8,0.,4.8
1980-11-15 12:26:52.490 ,0,0,,0,0.,4.8,0.,4.8,,0,0.,4.8,0.,4.8
1980-11-15 12:26:57.290 ,0,0,,0,0.,4.8,0.,4.8,,0,0.,4.8,0.,4.8
1980-11-15 12:27:02.090 ,1,0,,0,1.,4.8,0.,4.8,,0,0.,4.8,0.,4.8
1980-11-15 12:27:06.890 ,1,0,,0,0.,4.8,0.,4.8,,0,0.,4.8,0.,4.8
1980-11-15 12:27:11.690 ,1,0,,0,0.,4.8,0.,4.8,,0,0.,4.8,1.,4.8
1980-11-15 12:27:16.490 ,1,0,,0,0.,4.8,0.,4.8,,0,0.,4.8,0.,4.8
1980-11-15 12:27:21.290 ,1,0,,0,0.,4.8,0.,4.8,,0,0.,4.8,0.,4.8
1980-11-15 12:27:26.090 ,1,0,,0,0.,4.8,0.,4.8,,0,0.,4.8,0.,4.8
1980-11-15 12:27:30.890 ,1,0,,0,0.,4.8,0.,4.8,,0,0.,4.8,0.,4.8
1980-11-15 12:27:35.690 ,1,0,,0,0.,4.8,0.,4.8,,0,0.,4.8,0.,4.8
1980-11-15 12:27:40.490 ,1,0,,0,0.,4.8,0.,4.8,,0,0.,4.8,0.,4.8
1980-11-15 12:27:45.290 ,1,0,,0,0.,4.8,0.,4.8,,0,0.,4.8,0.,4.8
1980-11-15 12:27:50.090 ,2,0,,0,0.,4.8,0.,4.8,,0,0.,4.8,0.,4.8
1980-11-15 12:27:54.890 ,2,0,,0,0.,4.8,0.,4.8,,0,0.,4.8,0.,4.8
1980-11-15 12:27:59.690 ,2,0,,0,0.,4.8,0.,4.8,,0,0.,4.8,0.,4.8
1980-11-15 12:28:04.490 ,2,0,,0,0.,4.8,0.,4.8,,0,0.,4.8,0.,4.8
1980-11-15 12:28:09.290 ,2,0,,0,0.,4.8,0.,4.8,,0,0.,4.8,0.,4.8
1980-11-15 12:28:14.090 ,2,0,,0,0.,4.8,0.,4.8,,0,0.,4.8,0.,4.8
1980-11-15 12:28:18.890 ,2,0,,0,0.,4.8,0.,4.8,,0,0.,4.8,0.,4.8
1980-11-15 12:28:23.690 ,2,0,,0,0.,4.8,0.,4.8,,0,1.,4.8,0.,4.8
1980-11-15 12:28:28.490 ,2,0,,0,0.,4.8,0.,4.8,,0,0.,4.8,0.,4.8
1980-11-15 12:28:33.290 ,2,0,,0,0.,4.8,0.,4.8,,0,0.,4.8,0.,4.8
1980-11-15 12:28:38.090 ,3,0,,0,0.,4.8,0.,4.8,,0,0.,4.8,0.,4.8
1980-11-15 12:28:42.890 ,3,0,,0,0.,4.8,0.,4.8,,0,0.,4.8,0.,4.8
1980-11-15 12:28:47.690 ,3,0,,0,0.,4.8,0.,4.8,,0,0.,4.8,0.,4.8
1980-11-15 12:28:52.490 ,3,0,,0,0.,4.8,0.,4.8,,0,0.,4.8,0.,4.8
1980-11-15 12:28:57.290 ,3,0,,0,0.,4.8,0.,4.8,,0,0.,4.8,0.,4.8
1980-11-15 12:29:02.090 ,3,0,,0,0.,4.8,0.,4.8,,0,0.,4.8,0.,4.8
1980-11-15 12:29:06.890 ,3,0,,0,0.,4.8,0.,4.8,,0,0.,4.8,0.,4.8
1980-11-15 12:29:11.690 ,3,0,,0,0.,4.8,0.,4.8,,0,0.,4.8,0.,4.8
1980-11-15 12:29:16.490 ,3,0,,0,0.,4.8,0.,4.8,,0,0.,4.8,0.,4.8
1980-11-15 12:29:21.290 ,3,0,,0,0.,4.8,0.,4.8,,0,0.,4.8,0.,4.8
1980-11-15 12:29:26.090 ,4,0,,0,0.,4.8,0.,4.8,,0,0.,4.8,0.,4.8
1980-11-15 12:29:30.890 ,4,0,,0,0.,4.8,0.,4.8,,0,0.,4.8,0.,4.8
1980-11-15 12:29:35.690 ,4,0,,0,0.,4.8,0.,4.8,,0,0.,4.8,0.,4.8
1980-11-15 12:29:40.490 ,4,0,,0,0.,4.8,0.,4.8,,0,0.,4.8,0.,4.8
1980-11-15 12:29:45.290 ,4,0,,0,0.,4.8,0.,4.8,,0,0.,4.8,0.,4.8
1980-11-15 12:29:50.090 ,4,0,,0,0.,4.8,0.,4.8,,0,0.,4.8,0.,4.8
1980-11-15 12:29:54.890 ,4,0,,0,0.,4.8,0.,4.8,,0,0.,4.8,0.,4.8
1980-11-15 12:29:59.690 ,4,0,,0,0.,4.8,0.,4.8,,0,0.,4.8,0.,4.8
1980-11-15 12:30:04.490 ,4,0,,0,0.,4.8,0.,4.8,,0,0.,4.8,0.,4.8
1980-11-15 12:30:09.290 ,4,0,,0,0.,4.8,0.,4.8,,0,0.,4.8,0.,4.8
1980-11-15 12:30:14.090 ,5,0,,0,0.,4.8,0.,4.8,,0,0.,4.8,0.,4.8
1980-11-15 12:30:18.890 ,5,0,,0,0.,4.8,0.,4.8,,0,0.,4.8,0.,4.8
1980-11-15 12:30:23.690 ,5,0,,0,0.,4.8,0.,4.8,,0,0.,4.8,0.,4.8
1980-11-15 12:30:28.490 ,5,0,,0,0.,4.8,0.,4.8,,0,0.,4.8,0.,4.8
1980-11-15 12:30:33.290 ,5,0,,0,0.,4.8,0.,4.8,,0,0.,4.8,0.,4.8
1980-11-15 12:30:38.090 ,5,0,,0,1.,4.8,0.,4.8,,0,0.,4.8,0.,4.8
1980-11-15 12:30:42.890 ,5,0,,0,0.,4.8,0.,4.8,,0,0.,4.8,0.,4.8
1980-11-15 12:30:47.690 ,5,0,,0,0.,4.8,0.,4.8,,0,0.,4.8,0.,4.8
1980-11-15 12:30:52.490 ,5,0,,0,0.,4.8,0.,4.8,,0,0.,4.8,0.,4.8
1980-11-15 12:30:57.290 ,5,0,,0,1.,4.8,0.,4.8,,0,0.,4.8,0.,4.8
1980-11-15 12:31:02.090 ,6,0,,0,0.,4.8,0.,4.8,,0,0.,4.8,0.,4.8
1980-11-15 12:31:06.890 ,6,0,,0,0.,4.8,0.,4.8,,0,0.,4.8,0.,4.8
1980-11-15 12:31:11.690 ,6,0,,0,0.,4.8,0.,4.8,,0,0.,4.8,0.,4.8
1980-11-15 12:31:16.490 ,6,0,,0,0.,4.8,0.,4.8,,0,0.,4.8,0.,4.8
1980-11-15 12:31:21.290 ,6,0,,0,0.,4.8,0.,4.8,,0,0.,4.8,0.,4.8
1980-11-15 12:31:26.090 ,6,0,,0,0.,4.8,0.,4.8,,0,0.,4.8,0.,4.8
1980-11-15 12:31:30.890 ,6,0,,0,0.,4.8,0.,4.8,,0,0.,4.8,0.,4.8
1980-11-15 12:31:35.690 ,6,0,,0,0.,4.8,0.,4.8,,0,0.,4.8,0.,4.8
1980-11-15 12:31:40.490 ,6,0,,0,0.,4.8,0.,4.8,,0,0.,4.8,0.,4.8
1980-11-15 12:31:45.290 ,6,0,,0,0.,4.8,0.,4.8,,0,0.,4.8,0.,4.8
1980-11-15 12:31:50.090 ,7,0,,0,0.,4.8,0.,4.8,,0,0.,4.8,0.,4.8
1980-11-15 12:31:54.890 ,7,0,,0,0.,4.8,0.,4.8,,0,0.,4.8,0.,4.8
1980-11-15 12:31:59.690 ,7,0,,0,0.,4.8,0.,4.8,,0,0.,4.8,0.,4.8
1980-11-15 12:32:04.490 ,7,0,,0,0.,4.8,0.,4.8,,0,0.,4.8,0.,4.8
1980-11-15 12:32:09.290 ,7,0,,0,0.,4.8,0.,4.8,,0,0.,4.8,0.,4.8
1980-11-15 12:32:14.090 ,7,0,,0,0.,4.8,0.,4.8,,0,0.,4.8,0.,4.8
1980-11-15 12:32:18.890 ,7,0,,0,0.,4.8,0.,4.8,,0,0.,4.8,0.,4.8
1980-11-15 12:32:23.690 ,7,0,,0,0.,4.8,0.,4.8,,0,0.,4.8,0.,4.8
1980-11-15 12:32:28.490 ,7,0,,0,0.,4.8,0.,4.8,,0,0.,4.8,0.,4.8
1980-11-15 12:32:33.290 ,7,0,,0,0.,4.8,0.,4.8,,0,0.,4.8,0.,4.8
1980-11-15 12:32:38.090 ,7,0,,0,0.,4.8,0.,4.8,,0,0.,4.8,0.,4.8
1980-11-15 12:32:42.890 ,7,0,,0,0.,4.8,0.,4.8,,0,0.,4.8,0.,4.8
1980-11-15 12:32:47.690 ,7,0,,0,0.,4.8,0.,4.8,,0,0.,4.8,0.,4.8
1980-11-15 12:32:52.490 ,7,0,,0,0.,4.8,0.,4.8,,0,0.,4.8,0.,4.8
1980-11-15 12:32:57.290 ,7,0,,0,0.,4.8,0.,4.8,,0,0.,4.8,0.,4.8
1980-11-15 12:33:02.090 ,7,0,,0,0.,4.8,0.,4.8,,0,0.,4.8,0.,4.8
1980-11-15 12:33:06.890 ,7,0,,0,0.,4.8,0.,4.8,,0,0.,4.8,0.,4.8
1980-11-15 12:33:11.690 ,7,0,,0,0.,4.8,0.,4.8,,0,0.,4.8,0.,4.8
1980-11-15 12:33:16.490 ,7,0,,0,0.,4.8,0.,4.8,,0,0.,4.8,0.,4.8
1980-11-15 12:33:21.290 ,7,0,,0,0.,4.8,0.,4.8,,0,1.,4.8,0.,4.8
1980-11-15 12:33:26.090 ,6,0,,0,0.,4.8,0.,4.8,,0,0.,4.8,0.,4.8
1980-11-15 12:33:30.890 ,6,0,,0,0.,4.8,0.,4.8,,0,0.,4.8,0.,4.8
1980-11-15 12:33:35.690 ,6,0,,0,0.,4.8,0.,4.8,,0,0.,4.8,0.,4.8
1980-11-15 12:33:40.490 ,6,0,,0,0.,4.8,0.,4.8,,0,0.,4.8,0.,4.8
1980-11-15 12:33:45.290 ,6,0,,0,0.,4.8,0.,4.8,,0,0.,4.8,0.,4.8
1980-11-15 12:33:50.090 ,6,0,,0,0.,4.8,0.,4.8,,0,0.,4.8,0.,4.8
1980-11-15 12:33:54.890 ,6,0,,0,0.,4.8,0.,4.8,,0,0.,4.8,0.,4.8
1980-11-15 12:33:59.690 ,6,0,,0,0.,4.8,0.,4.8,,0,0.,4.8,0.,4.8
1980-11-15 12:34:04.490 ,6,0,,0,0.,4.8,0.,4.8,,0,1.,4.8,0.,4.8
1980-11-15 12:34:09.290 ,6,0,,0,0.,4.8,0.,4.8,,0,0.,4.8,0.,4.8
1980-11-15 12:34:14.090 ,5,0,,0,0.,4.8,0.,4.8,,0,0.,4.8,0.,4.8
1980-11-15 12:34:18.890 ,5,0,,0,0.,4.8,0.,4.8,,0,0.,4.8,0.,4.8
1980-11-15 12:34:23.690 ,5,0,,0,0.,4.8,0.,4.8,,0,0.,4.8,0.,4.8
1980-11-15 12:34:28.490 ,5,0,,0,0.,4.8,0.,4.8,,0,0.,4.8,0.,4.8
1980-11-15 12:34:33.290 ,5,0,,0,0.,4.8,0.,4.8,,0,0.,4.8,0.,4.8
1980-11-15 12:34:38.090 ,5,0,,0,0.,4.8,0.,4.8,,0,0.,4.8,0.,4.8
1980-11-15 12:34:42.890 ,5,0,,0,0.,4.8,0.,4.8,,0,0.,4.8,0.,4.8
1980-11-15 12:34:47.690 ,5,0,,0,0.,4.8,0.,4.8,,0,0.,4.8,0.,4.8
1980-11-15 12:34:52.490 ,5,0,,0,0.,4.8,0.,4.8,,0,0.,4.8,0.,4.8
1980-11-15 12:34:57.290 ,5,0,,0,0.,4.8,0.,4.8,,0,0.,4.8,0.,4.8
1980-11-15 12:35:02.090 ,4,0,,0,0.,4.8,0.,4.8,,0,0.,4.8,0.,4.8
1980-11-15 12:35:06.890 ,4,0,,0,0.,4.8,0.,4.8,,0,0.,4.8,0.,4.8
1980-11-15 12:35:11.690 ,4,0,,0,0.,4.8,0.,4.8,,0,0.,4.8,0.,4.8
1980-11-15 12:35:16.490 ,4,0,,0,0.,4.8,0.,4.8,,0,0.,4.8,0.,4.8
1980-11-15 12:35:21.290 ,4,0,,0,0.,4.8,0.,4.8,,0,0.,4.8,0.,4.8
1980-11-15 12:35:26.090 ,4,0,,0,0.,4.8,0.,4.8,,0,0.,4.8,0.,4.8
1980-11-15 12:35:30.890 ,4,0,,0,0.,4.8,0.,4.8,,0,0.,4.8,0.,4.8
1980-11-15 12:35:35.690 ,4,0,,0,0.,4.8,0.,4.8,,0,0.,4.8,0.,4.8
1980-11-15 12:35:40.490 ,4,0,,0,0.,4.8,0.,4.8,,0,0.,4.8,0.,4.8
1980-11-15 12:35:45.290 ,4,0,,0,0.,4.8,0.,4.8,,0,0.,4.8,0.,4.8
1980-11-15 12:35:50.090 ,3,0,,0,0.,4.8,0.,4.8,,0,0.,4.8,0.,4.8
1980-11-15 12:35:54.890 ,3,0,,0,0.,4.8,0.,4.8,,0,0.,4.8,0.,4.8
1980-11-15 12:35:59.690 ,3,0,,0,0.,4.8,0.,4.8,,0,0.,4.8,0.,4.8
1980-11-15 12:36:04.490 ,3,0,,0,0.,4.8,0.,4.8,,0,0.,4.8,0.,4.8
1980-11-15 12:36:09.290 ,3,0,,0,0.,4.8,0.,4.8,,0,0.,4.8,0.,4.8
1980-11-15 12:36:14.090 ,3,0,,0,0.,4.8,0.,4.8,,0,0.,4.8,0.,4.8
1980-11-15 12:36:18.890 ,3,0,,0,0.,4.8,0.,4.8,,0,0.,4.8,0.,4.8
1980-11-15 12:36:23.690 ,3,0,,0,0.,4.8,0.,4.8,,0,0.,4.8,0.,4.8
1980-11-15 12:36:28.490 ,3,0,,0,0.,4.8,0.,4.8,,0,0.,4.8,0.,4.8
1980-11-15 12:36:33.290 ,3,0,,0,0.,4.8,0.,4.8,,0,0.,4.8,0.,4.8
1980-11-15 12:36:38.090 ,2,0,,0,0.,4.8,0.,4.8,,0,0.,4.8,0.,4.8
1980-11-15 12:36:42.890 ,2,0,,0,0.,4.8,0.,4.8,,0,0.,4.8,0.,4.8
1980-11-15 12:36:47.690 ,2,0,,0,0.,4.8,0.,4.8,,0,0.,4.8,0.,4.8
1980-11-15 12:36:52.490 ,2,0,,0,0.,4.8,0.,4.8,,0,0.,4.8,0.,4.8
1980-11-15 12:36:57.290 ,2,0,,0,0.,4.8,0.,4.8,,0,0.,4.8,0.,4.8
1980-11-15 12:37:02.090 ,2,0,,0,0.,4.8,0.,4.8,,0,0.,4.8,0.,4.8
1980-11-15 12:37:06.890 ,2,0,,0,0.,4.8,0.,4.8,,0,0.,4.8,0.,4.8
1980-11-15 12:37:11.690 ,2,0,,0,0.,4.8,0.,4.8,,0,0.,4.8,0.,4.8
1980-11-15 12:37:16.490 ,2,0,,0,0.,4.8,0.,4.8,,0,0.,4.8,0.,4.8
1980-11-15 12:37:21.290 ,2,0,,0,0.,4.8,0.,4.8,,0,0.,4.8,0.,4.8
1980-11-15 12:37:26.090 ,1,0,,0,0.,4.8,0.,4.8,,0,0.,4.8,0.,4.8
1980-11-15 12:37:30.890 ,1,0,,0,0.,4.8,0.,4.8,,0,0.,4.8,0.,4.8
1980-11-15 12:37:35.690 ,1,0,,0,0.,4.8,0.,4.8,,0,0.,4.8,0.,4.8